Tracking 27380 objects as of 5-Jun-2023
HD Live streaming from Space Station
objects crossing your sky now

STARLINK-2410

Track STARLINK-2410 now!
10-day predictions
STARLINK-2410 is classified as:


NORAD ID: 47825
Int'l Code: 2021-018AQ
Perigee: 553.7 km
Apogee: 555.1 km
Inclination: 53.1 °
Period: 95.6 minutes
Semi major axis: 6925 km
RCS: Unknown
Launch date: March 11, 2021
Source: United States (US)
Launch site: AIR FORCE EASTERN TEST RANGE (AFETR)
Your satellite tracking list
Your tracking list is empty




NASA's NSSDC Master Catalog

Two Line Element Set (TLE):
1 47825U 21018AQ  23156.13567738  .00000870  00000-0  77335-4 0  9999
2 47825  53.0542  99.1913 0001026  91.0370 269.0737 15.06385668124243
Source of the keplerian elements: AFSPC